This demonstration page uses our WeatherBlox Daily Observations layout. Learn more.

40.92945, -100.16068

Hourly Observations for January 11, 2017

Temp ( °F °C ) Dew Point ( °F °C ) Humidity (%) Winds ( mph kmh ) Pressure ( in mb ) Visibility ( mi km ) Precip ( " mm )
12:15 am 00:15 Clear 40 4.5 28 -2 63 63 S 9 15 29.68 1005 10 16.0934 0 0
12:35 am 00:35 Clear 38 3.5 28 -2 68 68 Calm 29.68 1005 10 16.0934 0 0
12:55 am 00:55 Clear 38 3.6 28 -2.1 67 67 SSE 8 13 29.68 1005 10 16.0934 0 0
1:15 am 01:15 Clear 35 1.7 27 -2.6 73 73 ENE 3 6 29.71 1006 10 16.0934 0 0
1:35 am 01:35 Clear 36 2.1 28 -2.5 72 72 SSE 6 9 29.71 1006 10 16.0934 0 0
1:55 am 01:55 Clear 35 1.8 28 -2.4 74 74 S 5 7 29.68 1005 10 16.0934 0 0
2:15 am 02:15 Clear 35 1.4 27 -2.7 74 74 Calm 29.68 1005 10 16.0934 0 0
2:35 am 02:35 Clear 33 0.5 27 -2.7 79 79 Calm 29.65 1004 10 16.0934 0 0
2:55 am 02:55 Clear 33 0.7 27 -2.9 77 77 S 7 11 29.65 1004 10 16.0934 0 0
3:15 am 03:15 Clear 33 0.7 27 -2.6 79 79 E 5 7 29.65 1004 10 16.0934 0 0
3:35 am 03:35 Clear 34 1.3 27 -2.7 75 75 NE 9 15 29.65 1004 10 16.0934 0 0
3:55 am 03:55 Clear 33 0.3 28 -2.5 82 82 Calm 29.65 1004 10 16.0934 0 0
4:15 am 04:15 Clear 32 0 28 -2.5 83 83 ENE 6 9 29.62 1003 10 16.0934 0 0
4:35 am 04:35 Clear 32 0 28 -2.2 85 85 E 3 6 29.62 1003 10 16.0934 0 0
4:55 am 04:55 Clear 33 0.3 28 -2.1 84 84 SE 6 9 29.62 1003 10 16.0934 0 0
5:15 am 05:15 Clear 34 1 28 -2 81 81 SSE 3 6 29.59 1002 10 16.0934 0 0
5:35 am 05:35 Partly Cloudy 34 1.1 29 -1.7 82 82 S 6 9 29.59 1002 10 16.0934 0 0
5:55 am 05:55 Partly Cloudy 33 0.7 29 -1.7 84 84 Calm 29.59 1002 10 16.0934 0 0
6:15 am 06:15 Partly Cloudy 32 0.2 29 -1.7 87 87 N 21 33 29.62 1003 10 16.0934 0 0
6:35 am 06:35 Mostly Cloudy 36 2.4 29 -1.5 76 76 NNE 16 26 29.62 1003 10 16.0934 0 0
6:55 am 06:55 Mostly Cloudy 25 -3.8 19 -7.5 76 76 NNE 24 39 29.74 1007 10 16.0934 0 0
7:15 am 07:15 Partly Cloudy 20 -6.7 15 -9.6 80 80 NNE 18 30 29.83 1010 10 16.0934 0 0
7:35 am 07:35 Clear 18 -8 13 -10.8 81 81 N 28 44 29.83 1010 10 16.0934 0 0
7:55 am 07:55 Clear 16 -9.1 10 -12.1 79 79 N 26 43 29.85 1011 10 16.0934 0 0
8:15 am 08:15 Sunny 14 -10.1 8 -13.1 79 79 N 25 41 29.88 1012 10 16.0934 0 0
8:35 am 08:35 Sunny 13 -10.6 8 -13.6 79 79 N 26 43 29.88 1012 10 16.0934 0 0
8:55 am 08:55 Sunny 13 -10.6 7 -13.9 77 77 N 24 39 29.88 1012 10 16.0934 0 0
9:15 am 09:15 Sunny 13 -10.6 7 -13.9 77 77 NNE 21 33 29.88 1012 10 16.0934 0 0
9:35 am 09:35 Sunny 14 -10.2 7 -13.8 75 75 NNE 29 46 29.88 1012 10 16.0934 0 0
9:55 am 09:55 Sunny 14 -9.8 7 -13.9 72 72 NNE 23 37 29.88 1012 10 16.0934 0 0
10:15 am 10:15 Sunny 15 -9.5 7 -13.8 71 71 NNE 23 37 29.91 1013 10 16.0934 0 0
10:35 am 10:35 Sunny 15 -9.2 8 -13.4 72 72 NNE 22 35 29.91 1013 10 16.0934 0 0
10:55 am 10:55 Sunny 16 -9 8 -13.4 71 71 N 23 37 29.94 1014 10 16.0934 0 0
11:15 am 11:15 Sunny 16 -9 8 -13.6 70 70 N 23 37 29.94 1014 10 16.0934 0 0
11:35 am 11:35 Sunny 16 -8.9 8 -13.4 70 70 N 22 35 29.94 1014 10 16.0934 0 0
11:55 am 11:55 Sunny 16 -9.1 7 -13.7 70 70 N 20 31 29.94 1014 10 16.0934 0 0
12:15 pm 12:15 Sunny 17 -8.2 8 -13.2 68 68 N 21 33 29.94 1014 10 16.0934 0 0
12:35 pm 12:35 Sunny 17 -8.2 7 -13.7 65 65 NNE 21 33 29.94 1014 10 16.0934 0 0
12:55 pm 12:55 Sunny 18 -7.6 8 -13.2 65 65 NE 18 30 29.94 1014 10 16.0934 0 0
1:15 pm 13:15 Sunny 18 -7.7 8 -13.4 64 64 NNE 14 22 29.94 1014 10 16.0934 0 0
1:35 pm 13:35 Sunny 19 -7.5 8 -13.5 63 63 N 16 26 29.94 1014 10 16.0934 0 0
1:55 pm 13:55 Sunny 19 -7.5 8 -13.5 63 63 NNE 14 22 29.94 1014 10 16.0934 0 0
2:15 pm 14:15 Sunny 19 -7.4 8 -13.6 62 62 NNE 15 24 29.94 1014 10 16.0934 0 0
2:35 pm 14:35 Sunny 18 -7.7 8 -13.6 63 63 NNE 10 17 29.94 1014 10 16.0934 0 0
2:55 pm 14:55 Sunny 19 -7.1 8 -13.3 62 62 NNE 13 20 29.91 1013 10 16.0934 0 0
3:15 pm 15:15 Sunny 19 -7.5 7 -13.9 61 61 NE 13 20 29.97 1015 10 16.0934 0 0
3:35 pm 15:35 Partly Cloudy 18 -7.7 8 -13.6 63 63 NE 13 20 29.94 1014 10 16.0934 0 0
3:55 pm 15:55 Sunny 19 -7.3 8 -13.5 62 62 NNE 14 22 29.91 1013 10 16.0934 0 0
4:15 pm 16:15 Sunny 19 -7.4 8 -13.6 62 62 N 14 22 29.94 1014 10 16.0934 0 0
4:35 pm 16:35 Sunny 17 -8.3 6 -14.3 62 62 N 10 17 30 1016 10 16.0934 0 0
4:55 pm 16:55 Mostly Cloudy 18 -8 7 -13.9 63 63 NNE 12 19 30 1016 10 16.0934 0 0
5:15 pm 17:15 Cloudy 18 -7.9 7 -13.8 63 63 NNE 7 11 30 1016 10 16.0934 0 0
5:35 pm 17:35 Cloudy 18 -7.9 7 -13.8 63 63 NE 10 17 29.97 1015 10 16.0934 0 0
5:55 pm 17:55 Cloudy 17 -8.3 7 -14.1 63 63 NNE 12 19 30 1016 10 16.0934 0 0
6:15 pm 18:15 Cloudy 17 -8.5 6 -14.2 64 64 NNE 14 22 30 1016 10 16.0934 0 0
6:35 pm 18:35 Cloudy 16 -8.7 6 -14.4 64 64 NE 15 24 30 1016 10 16.0934 0 0
6:55 pm 18:55 Cloudy 16 -9 6 -14.7 64 64 NE 13 20 30 1016 10 16.0934 0 0
7:15 pm 19:15 Cloudy 15 -9.2 5 -14.9 64 64 NNE 16 26 30 1016 10 16.0934 0 0
7:35 pm 19:35 Cloudy 15 -9.5 5 -15 65 65 NNE 14 22 30 1016 10 16.0934 0 0
7:55 pm 19:55 Mostly Cloudy 14 -10 4 -15.3 66 66 NNE 7 11 30.09 1019 10 16.0934 0 0
8:15 pm 20:15 Partly Cloudy 14 -10.1 4 -15.3 66 66 E 7 11 30.09 1019 10 16.0934 0 0
8:35 pm 20:35 Mostly Cloudy 14 -10 5 -14.9 68 68 NNE 9 15 30.12 1020 10 16.0934 0 0
8:55 pm 20:55 Cloudy 14 -10 5 -14.8 68 68 N 8 13 30.12 1020 10 16.0934 0 0
9:15 pm 21:15 Cloudy 14 -10 6 -14.3 71 71 NNE 6 9 30.12 1020 10 16.0934 0 0
9:35 pm 21:35 Cloudy 14 -10.1 6 -14.3 72 72 N 9 15 30.12 1020 10 16.0934 0 0
9:55 pm 21:55 Cloudy 14 -10.2 7 -14.1 73 73 N 10 17 30.12 1020 10 16.0934 0 0
10:15 pm 22:15 Cloudy with Light Snow 13 -10.7 7 -13.7 79 79 N 9 15 30.15 1021 4 6.43736 0 0
10:35 pm 22:35 Cloudy 12 -10.9 7 -13.8 79 79 N 9 15 30.12 1020 10 16.0934 0 0
10:55 pm 22:55 Mostly Cloudy with Scattered Snow Showers 12 -11.3 6 -14.3 79 79 NNE 10 17 30.12 1020 7 11.26538 0 0
11:15 pm 23:15 Partly Cloudy 11 -11.5 6 -14.4 79 79 NE 8 13 30.12 1020 10 16.0934 0 0
11:35 pm 23:35 Mostly Cloudy 11 -11.5 6 -14.6 78 78 N 8 13 30.18 1022 10 16.0934 0 0
11:55 pm 23:55 Partly Cloudy 11 -11.8 6 -14.7 79 79 NNE 6 9 30.18 1022 10 16.0934 0 0

Powered by AerisWeather